Location: Mentone
(34.5413°N, 85.5351°W)
Time: 11:17:17
(UTC-05:00)

Transit 2A Rocket - Visible Passes

Search period start: 29 May 2015 00:00
Search period end: 08 June 2015 00:00
Orbit: 586 x 919 km, 66.7° (Epoch: 28 May)

Date Brightness Start Highest point End Pass type
(mag) Time Alt. Az. Time Alt. Az. Time Alt. Az.
29 May 6.4 21:06:18 10° N 21:10:22 23° NE 21:12:49 16° E visible
29 May 5.9 22:48:31 10° NW 22:52:45 36° W 22:52:45 36° W visible
30 May 7.0 20:25:17 10° NNE 20:27:49 14° NE 20:30:28 10° ENE visible
30 May 4.8 22:06:07 10° NNW 22:11:14 72° WSW 22:11:53 62° SSW visible
31 May 5.0 21:24:01 10° NNW 21:29:08 61° ENE 21:31:03 34° SE visible
31 May 7.3 23:09:19 10° W 23:11:00 12° WSW 23:11:00 12° WSW visible
01 Jun 5.8 20:42:13 10° N 20:46:53 33° NE 20:50:16 15° ESE visible
01 Jun 6.4 22:25:21 10° NW 22:29:17 23° WSW 22:30:13 21° SW visible
02 Jun 5.6 21:42:35 10° NW 21:47:24 44° WSW 21:49:29 27° SSW visible
03 Jun 4.8 21:00:17 10° NNW 21:05:25 86° WSW 21:08:47 19° SSE visible
04 Jun 5.2 20:18:17 10° NNW 20:23:17 50° ENE 20:27:48 10° SE visible
04 Jun 7.2 22:02:43 10° WNW 22:05:21 14° WSW 22:07:39 10° SW visible
05 Jun 6.5 21:19:17 10° NW 21:23:31 27° WSW 21:27:20 10° SSW visible
06 Jun 5.4 20:36:42 10° NW 20:41:36 53° WSW 20:46:03 10° S visible
